Overview Statistics Trail Chart Weather Telemetry Raw packets
 

This is the latest recevied weather packets stored in our database for station/object K5BOU. If no packets are shown the sender has not sent any weather packets the latest 10 day(s).

<< 19 20 21 22 23 24 25 >>
Time Temp. Humidity Pressure Rain* Wind** Luminosity Snow
1788531590 31.67° C 86% 1012.6 hPa 0 mm - 181 W/m² -
1788531285 31.67° C 87% 1012.6 hPa 0 mm - 198 W/m² -
1788530982 31.11° C 88% 1012.5 hPa 0 mm - 393 W/m² -
1788530682 30.56° C 91% 1012.6 hPa 0 mm - 219 W/m² -
1788530381 30° C 92% 1012.7 hPa 0 mm - 208 W/m² -
1788530080 30° C 92% 1012.7 hPa 0 mm - 182 W/m² -
1788529777 30° C 92% 1012.7 hPa 0 mm - 171 W/m² -
1788529476 30° C 92% 1012.6 hPa 0 mm - 161 W/m² -
1788529171 30° C 92% 1012.7 hPa 0 mm - 160 W/m² -
1788528866 30.56° C 92% 1012.6 hPa 0 mm - 148 W/m² -
1788528562 30.56° C 92% 1012.7 hPa 0 mm - 127 W/m² -
1788528257 30° C 93% 1012.5 hPa 0 mm - 122 W/m² -
1788527956 29.44° C 94% 1012.6 hPa 0 mm - 114 W/m² -
1788527652 28.89° C 97% 1012.2 hPa 0 mm - 106 W/m² -
1788527348 28.33° C 99% 1012.3 hPa 0 mm - 106 W/m² -
1788527046 27.78° C 99% 1012.4 hPa 0 mm - 95 W/m² -
1788526741 27.78° C 99% 1012.3 hPa 0 mm - 88 W/m² -
1788526438 27.22° C 99% 1012.3 hPa 0 mm - 78 W/m² -
1788526137 27.22° C 99% 1012.2 hPa 0 mm - 64 W/m² -
1788525834 26.67° C 99% 1012.2 hPa 0 mm - 54 W/m² -
1788525529 26.67° C 99% 1012.2 hPa 0 mm - 35 W/m² -
1788525224 26.67° C 99% 1012 hPa 0 mm - 24 W/m² -
1788524919 26.67° C 99% 1012.2 hPa 0 mm - 16 W/m² -
1788524618 26.11° C 99% 1012.1 hPa 0 mm - 10 W/m² -
1788524314 26.11° C 99% 1012 hPa 0 mm - 4 W/m² -

* Rain latest hour (hover to see other rain measurements)
** Current wind speed in m/s (hover to see current wind gust speed)